Regional Weather Roundup
Issued by NWS Upton, NY

Home | Current Version | Previous Version | Text Only | Print | Product List | Glossary On
Versions: 1 2 3 4 5 6 7 8 9 10 11 12 13 14 15 16 17 18 19 20 21 22 23 24 25 26
000
ASUS41 KOKX 190205
RWROKX

REGIONAL WEATHER ROUNDUP
NATIONAL WEATHER SERVICE NEW YORK NY
1000 PM EDT FRI APR 18 2014

NOTE: "FAIR" INDICATES FEW OR NO CLOUDS BELOW 12,000 FEET WITH NO
SIGNIFICANT WEATHER AND/OR OBSTRUCTIONS TO VISIBILITY.

NYZ071-072-176-178-NJZ106-104-190300-
NEW YORK CITY METRO AREA


CITY           SKY/WX    TMP DP  RH WIND       PRES   REMARKS
CENTRAL PARK   CLOUDY    43  32  65 VRB5      30.32F
LAGUARDIA APRT CLOUDY    42  31  64 S7        30.30F
KENNEDY INTL   CLOUDY    41  34  76 S7        30.32F
NEWARK/LIBERTY CLOUDY    43  32  65 S3        30.30F
TETERBORO      CLOUDY    44  33  65 S6        30.29F
$$

NYZ177-179-078>081-190300-
LONG ISLAND NEW YORK

CITY           SKY/WX    TMP DP  RH WIND       PRES   REMARKS
FARMINGDALE    CLOUDY    40  34  79 SW6       30.32S
ISLIP          CLOUDY    41  34  76 SW5       30.30F
SHIRLEY        CLOUDY    41  35  79 S5        30.32S
WESTHAMPTON    CLOUDY    38  32  79 SW3       30.33R
MONTAUK POINT    N/A     41  35  79 CALM      30.32S
$$

NYZ052-065-067-190300-
HUDSON VALLEY

CITY           SKY/WX    TMP DP  RH WIND       PRES   REMARKS
WHITE PLAINS   CLOUDY    40  30  67 CALM      30.28F
NEWBURGH       PTCLDY    45  28  53 VRB5      30.28R
MONTGOMERY     CLOUDY    43  30  60 SW6       30.26S
POUGHKEEPSIE   CLOUDY    45  28  51 S3        30.27S
ALBANY         MOCLDY    45  25  45 S6        30.24R
$$

NJZ001-105-106-008-010-013-015-019>022-104-190300-
NEW JERSEY

CITY           SKY/WX    TMP DP  RH WIND       PRES   REMARKS
NEWARK/LIBERTY CLOUDY    43  32  65 S3        30.30F
TETERBORO      CLOUDY    44  33  65 S6        30.29F
CALDWELL       CLOUDY    43  31  62 CALM      30.30F
MORRISTOWN     CLOUDY    43  32  65 CALM      30.29F
SOMERVILLE     CLOUDY    43  33  68 SE6       30.27F
LINDEN         FAIR      44  34  66 SE5       30.32F
SUSSEX         CLOUDY    45  31  58 CALM      30.27F
ANDOVER          N/A     43  31  62 CALM      30.26F
TRENTON        CLOUDY    43  34  70 S7        30.29F
MILLVILLE      CLOUDY    42  36  79 SE5       30.31F
ATLANTIC CITY  CLOUDY    40  35  83 N3        30.31F
WRIGHTSTOWN    CLOUDY    40  34  79 S5        30.30R
TOMS RIVER     CLOUDY    37  32  81 SW6       30.33R WCI  33
BELMAR         CLOUDY    39  30  70 CALM      30.29F
$$

PAZ047>061-062-071-190300-
EASTERN PENNSYLVANIA

CITY           SKY/WX    TMP DP  RH WIND       PRES   REMARKS
PHILADELPHIA   CLOUDY    48  37  65 S14       30.32R
ALLENTOWN      CLOUDY    45  31  58 CALM      30.28F
SCRANTON       CLOUDY    47  30  51 SW6       30.23F
$$

CTZ002-004>006-009-010-012-RIZ004-006-007-MAZ004-011-015-190300-
SOUTHERN NEW ENGLAND
 IN CT

CITY           SKY/WX    TMP DP  RH WIND       PRES   REMARKS
BRADLEY INTL   CLOUDY    44  31  60 S10       30.27S
HARTFORD       CLOUDY    43  31  62 S6        30.29S
DANBURY        CLOUDY    41  30  65 S6        30.29S
WTRBRY/OXFORD  CLOUDY    39  28  65 SW3       30.30S
BRIDGEPORT     CLOUDY    43  35  73 SW9       30.31S
MERIDEN        CLOUDY    41  32  70 S7        30.30R
NEW HAVEN      CLOUDY    44  34  67 SW3       30.31R
CHESTER        FAIR      39  32  75 SW6       30.30R WCI  35
GROTON         CLOUDY    41  37  86 S8        30.30S
WILLIMANTIC    CLOUDY    42  31  64 S3        30.29R

 IN RI

CITY           SKY/WX    TMP DP  RH WIND       PRES   REMARKS
PROVIDENCE     CLOUDY    41  34  76 S7        30.30S
BLOCK ISLAND   CLOUDY    39  32  75 SW5       30.30R
WESTERLY       CLOUDY    39  34  82 W3        30.31S

 IN MA

CITY           SKY/WX    TMP DP  RH WIND       PRES   REMARKS
BOSTON         CLOUDY    37  32  81 S7        30.30F WCI  32
WORCESTER      CLOUDY    38  30  73 SE7       30.25F WCI  33
WESTFIELD      CLOUDY    41  31  67 S6        30.26S
PROVINCETOWN   CLOUDY    37  36  93 MISG      30.31S
NANTUCKET      CLOUDY    38  34  85 N3        30.29F
$$

ANZ330-335-338-340-345-350-353-355-190300-
COASTAL MARINE OBSERVATIONS


STATION/POSITION TIME  SKY/WX   TEMP    WIND        PRES    VSBY  WAVE
                                AIR SEA DIR/SP/G                  HT/PER
                 (UTC)          (F)     (DEG/KT/KT) (MB)    (MI)  (FT/S)
NY HARB ENTRANCE 0200            41 43   50/  6/  8 1026.0
4S FIRE IS       0100               44                N/A           5/11
23SW MTP         0200            40 42  240/  6/  8 1026.6          5/10
HUDSON CANYON    0100            41 44   10/  6/  6 1026.8          7/10
EXECUTION ROCKS  0200            42 42  200/  8/  8   N/A
WESTERN LI SOUND 0200            42     160/  6/  6   N/A           0
CENTRAL LI SOUND 0100            41 42  230/  8/ 10   N/A           0
EASTERN LI SOUND NOT AVBL
ROBBINS REEF     0200            42     170/  8/  9   N/A
$$


>>>>>>>>>>>>>>>>>>>>>>>>>>>> KEY <<<<<<<<<<<<<<<<<<<<<<<<<<<
>                                                          <
>     SKY/WX - SKY CONDITION/PRESENT WEATHER               <
>     TMP    - TEMPERATURE IN FAHRENHEIT                   <
>     DP     - DEWPOINT IN FAHRENHEIT                      <
>     RH     - RELATIVE HUMIDITY IN PERCENT                <
>     WIND   - DIRECTION AND SPEED IN MPH                  <
>     PRES   - MEAN SEA LEVEL PRESSURE IN INCHES OF HG     <
>     WCI    - WIND CHILL INDEX                            <
>     VSB    - VISIBILITY IN MILES                         <
>     HX     - HEAT INDEX                                  <
>     TC     - TEMPERATURE IN CELSIUS                      <
>     VRB    - VARIABLE WIND DIRECTION                     <
>                                                          <
>>>>>>>>>>>>>>>>>>>>>>>>>>>> KEY <<<<<<<<<<<<<<<<<<<<<<<<<<<





USA.gov is the U.S. government's official web portal to all federal, state and local government web resources and services.